KC1OEK-13 Weather Reports


Display with metric or nautical units.
time (UTC)temp
F
wind
direction
speed
MPH
gust
MPH
rain 1hr
in
rain 24hr
in
rain mn
in
humidity
%
barometer
mb
20260505181136 80 169 4.0 18.0 0.00 0.00 0.00 46 1009.9
20260505180632 80 225 3.0 6.0 0.00 0.00 0.00 46 1010.0
20260505180130 81 265 6.0 11.0 0.00 0.00 0.00 43 1009.8
20260505175625 80 283 4.0 7.0 0.00 0.00 0.00 44 1009.7
20260505175121 81 30 2.0 8.0 0.00 0.00 0.00 44 1010.0
20260505174613 79 265 4.0 13.0 0.00 0.00 0.00 43 1009.9
20260505174109 80 359 1.0 16.0 0.00 0.00 0.00 44 1009.9
20260505173606 79 232 8.0 15.0 0.00 0.00 0.00 47 1009.9
20260505173103 80 327 2.0 7.0 0.00 0.00 0.00 47 1010.1
20260505172600 78 209 2.0 8.0 0.00 0.00 0.00 45 1010.3
20260505172057 78 157 10.0 17.0 0.00 0.00 0.00 44 1010.2
20260505171551 79 303 3.0 7.0 0.00 0.00 0.00 47 1010.4
20260505171049 78 220 5.0 11.0 0.00 0.00 0.00 50 1010.3
20260505170545 78 38 3.0 16.0 0.00 0.00 0.00 47 1010.3
20260505170042 78 29 4.0 7.0 0.00 0.00 0.00 46 1010.5
20260505165537 78 151 3.0 13.0 0.00 0.00 0.00 48 1010.7
20260505165033 77 209 2.0 17.0 0.00 0.00 0.00 50 1010.7
20260505164529 77 214 9.0 11.0 0.00 0.00 0.00 46 1010.7
20260505164027 77 244 4.0 11.0 0.00 0.00 0.00 50 1010.8
20260505163525 77 108 5.0 9.0 0.00 0.00 0.00 50 1011.0
20260505163022 77 319 1.0 9.0 0.00 0.00 0.00 49 1010.8
20260505162515 76 268 4.0 11.0 0.00 0.00 0.00 50 1011.1
20260505162012 76 255 1.0 8.0 0.00 0.00 0.00 49 1011.1
20260505161509 76 278 6.0 13.0 0.00 0.00 0.00 51 1011.1
20260505161006 76 180 7.0 13.0 0.00 0.00 0.00 50 1011.1
20260505160504 76 234 1.0 7.0 0.00 0.00 0.00 51 1011.2
20260505152940 73 198 6.0 9.0 0.00 0.00 0.00 51 1011.5
20260505152438 73 201 4.0 8.0 0.00 0.00 0.00 52 1011.7
20260505151937 73 195 4.0 8.0 0.00 0.00 0.00 53 1011.7
20260505151428 74 206 7.0 10.0 0.00 0.00 0.00 52 1012.0
20260505150926 73 147 0.0 5.0 0.00 0.00 0.00 54 1012.3
20260505150422 72 309 2.0 8.0 0.00 0.00 0.00 54 1012.2
20260505140352 68 13 1.0 6.0 0.00 0.00 0.00 62 1012.0
20260505124806 58 310 2.0 2.0 0.00 0.00 0.00 80 1012.6
20260505124303 57 23 0.0 2.0 0.00 0.00 0.00 80 1012.5
20260505123758 57 359 1.0 1.0 0.00 0.00 0.00 80 1012.5
20260505123255 57 4 1.0 2.0 0.00 0.00 0.00 81 1012.6
20260505122751 57 10 0.0 0.0 0.00 0.00 0.00 83 1012.5
20260505122249 55 28 0.0 0.0 0.00 0.00 0.00 85 1012.5
20260505121745 54 12 3.0 3.0 0.00 0.00 0.00 86 1012.8
20260505121242 54 282 1.0 2.0 0.00 0.00 0.00 87 1012.9
20260505120738 53 12 0.0 0.0 0.00 0.00 0.00 89 1012.6
20260505120235 52 21 0.0 0.0 0.00 0.00 0.00 90 1012.6
20260505115733 51 26 0.0 0.0 0.00 0.00 0.00 91 1012.9
20260505115231 51 26 0.0 0.0 0.00 0.00 0.00 93 1012.8
20260505114728 50 30 0.0 1.0 0.00 0.00 0.00 95 1012.7
20260505114224 49 24 0.0 1.0 0.00 0.00 0.00 96 1012.7
20260505113721 48 20 0.0 0.0 0.00 0.00 0.00 97 1012.8
20260505113217 47 17 0.0 0.0 0.00 0.00 0.00 98 1012.6
20260505112714 46 10 0.0 0.0 0.00 0.00 0.00 98 1012.7
20260505112212 45 15 0.0 1.0 0.00 0.00 0.00 99 1012.8
20260505111706 45 22 0.0 0.0 0.00 0.00 0.00 99 1012.8
20260505111202 44 16 0.0 0.0 0.00 0.00 0.00 99 1012.7
20260505110658 44 87 1.0 1.0 0.00 0.00 0.00 99 1012.7
20260505110156 44 16 0.0 1.0 0.00 0.00 0.00 99 1012.7
20260505102131 42 8 0.0 1.0 0.00 0.00 0.00 99 1012.3
20260505101630 42 13 0.0 1.0 0.00 0.00 0.00 99 1012.1
20260505101126 42 6 0.0 0.0 0.00 0.00 0.00 99 1012.1
20260505100622 42 2 0.0 0.0 0.00 0.00 0.00 99 1012.2
20260505100119 42 2 0.0 0.0 0.00 0.00 0.00 99 1011.9
20260505095615 42 25 1.0 1.0 0.00 0.00 0.00 99 1011.9
20260505095112 42 13 0.0 0.0 0.00 0.00 0.00 99 1011.9
20260505094608 42 18 0.0 0.0 0.00 0.00 0.00 99 1012.0
20260505094105 42 19 0.0 0.0 0.00 0.00 0.00 99 1011.8
20260505093601 42 19 0.0 0.0 0.00 0.00 0.00 99 1011.9
20260505093058 42 19 0.0 0.0 0.00 0.00 0.00 99 1011.9
20260505092556 42 20 0.0 0.0 0.00 0.00 0.00 99 1011.6
20260505092054 42 20 0.0 0.0 0.00 0.00 0.00 99 1011.9
20260505091550 42 20 0.0 0.0 0.00 0.00 0.00 99 1012.0
20260505091049 42 20 0.0 0.0 0.00 0.00 0.00 98 1011.8
20260505090547 42 20 0.0 0.0 0.00 0.00 0.00 98 1011.7
20260505090044 42 20 0.0 0.0 0.00 0.00 0.00 98 1011.8
20260505085542 42 20 0.0 0.0 0.00 0.00 0.00 98 1011.7
20260505085040 42 20 0.0 0.0 0.00 0.00 0.00 98 1011.8
20260505084538 42 19 0.0 0.0 0.00 0.00 0.00 98 1011.8
20260505084036 42 19 0.0 0.0 0.00 0.00 0.00 98 1011.8
20260505083532 42 19 0.0 0.0 0.00 0.00 0.00 98 1011.8
20260505083029 43 24 0.0 0.0 0.00 0.00 0.00 98 1011.9
20260505082525 43 23 0.0 0.0 0.00 0.00 0.00 98 1011.8
20260505082022 43 18 0.0 1.0 0.00 0.00 0.00 98 1011.8
20260505081518 43 13 0.0 0.0 0.00 0.00 0.00 98 1012.0
20260505081015 43 11 0.0 1.0 0.00 0.00 0.00 98 1012.0
20260505080511 43 11 0.0 1.0 0.00 0.00 0.00 98 1012.0
20260505080008 43 23 0.0 0.0 0.00 0.00 0.00 98 1012.0
20260505075504 43 23 0.0 0.0 0.00 0.00 0.00 97 1012.0
20260505075001 43 23 0.0 0.0 0.00 0.00 0.00 97 1012.1
20260505074459 43 23 0.0 1.0 0.00 0.00 0.00 97 1012.1
20260505073955 43 27 0.0 0.0 0.00 0.00 0.00 97 1012.1
20260505073453 43 26 0.0 0.0 0.00 0.00 0.00 97 1012.1
20260505072950 43 26 0.0 0.0 0.00 0.00 0.00 97 1012.0
20260505072446 43 26 0.0 0.0 0.00 0.00 0.00 97 1011.9
20260505071942 43 26 0.0 1.0 0.00 0.00 0.00 97 1012.0
20260505071438 43 26 0.0 0.0 0.00 0.00 0.00 97 1011.9
20260505070937 43 8 0.0 0.0 0.00 0.00 0.00 96 1011.8
20260505070433 43 8 0.0 0.0 0.00 0.00 0.00 96 1011.8
20260505065929 43 8 0.0 0.0 0.00 0.00 0.00 96 1011.7
20260505065426 44 21 0.0 0.0 0.00 0.00 0.00 96 1011.9
20260505064922 44 21 0.0 0.0 0.00 0.00 0.00 96 1012.2
20260505064419 44 21 0.0 0.0 0.00 0.00 0.00 96 1012.1
20260505063918 44 21 0.0 0.0 0.00 0.00 0.00 96 1011.9
20260505063414 44 21 0.0 0.0 0.00 0.00 0.00 95 1012.2
20260505062910 44 21 0.0 0.0 0.00 0.00 0.00 95 1012.2
20260505062408 44 21 0.0 0.0 0.00 0.00 0.00 95 1012.1
20260505061904 44 21 0.0 0.0 0.00 0.00 0.00 95 1012.0
20260505061403 44 21 0.0 0.0 0.00 0.00 0.00 94 1012.2
20260505060900 45 21 0.0 0.0 0.00 0.00 0.00 94 1012.1
20260505060356 45 26 0.0 0.0 0.00 0.00 0.00 94 1012.3
20260505055853 45 20 0.0 0.0 0.00 0.00 0.00 94 1012.2
20260505055348 45 15 0.0 0.0 0.00 0.00 0.00 94 1012.0
20260505054846 45 12 0.0 0.0 0.00 0.00 0.00 93 1012.3
20260505054343 45 12 0.0 0.0 0.00 0.00 0.00 93 1012.3
20260505053841 45 12 0.0 0.0 0.00 0.00 0.00 93 1012.3
20260505053338 45 11 0.0 0.0 0.00 0.00 0.00 93 1012.4
20260505052835 46 11 0.0 0.0 0.00 0.00 0.00 93 1012.3
20260505052332 45 11 0.0 0.0 0.00 0.00 0.00 92 1012.5
20260505051829 46 11 0.0 1.0 0.00 0.00 0.00 92 1012.5
20260505051326 46 23 0.0 0.0 0.00 0.00 0.00 92 1012.6
20260505050824 46 23 0.0 0.0 0.00 0.00 0.00 92 1012.2
20260505050323 46 9 0.0 0.0 0.00 0.00 0.00 91 1012.5
20260505041752 47 23 0.0 0.0 0.00 0.00 0.00 88 1012.6
20260505041249 47 23 0.0 0.0 0.00 0.00 0.00 88 1012.7
20260505040747 47 23 0.0 0.0 0.00 0.00 0.00 88 1012.8
20260505040244 48 23 0.0 0.0 0.00 0.00 0.00 87 1012.7
20260505035741 48 23 0.0 0.0 0.00 0.00 0.00 87 1012.8
20260505035237 48 23 0.0 0.0 0.00 0.00 0.00 86 1012.8
20260505034734 48 23 0.0 0.0 0.00 0.00 0.00 85 1012.7
20260505034231 49 23 0.0 0.0 0.00 0.00 0.00 84 1012.7
20260505033727 49 23 0.0 0.0 0.00 0.00 0.00 83 1012.4
20260505033225 50 23 0.0 1.0 0.00 0.00 0.00 82 1012.8
20260505032723 51 24 0.0 0.0 0.00 0.00 0.00 79 1012.7
20260505032218 52 25 0.0 1.0 0.00 0.00 0.00 77 1012.8
20260505031716 52 4 1.0 1.0 0.00 0.00 0.00 78 1012.7
20260505031212 52 11 0.0 0.0 0.00 0.00 0.00 77 1012.6
20260505030709 52 25 0.0 1.0 0.00 0.00 0.00 78 1012.7
20260505030205 52 10 0.0 1.0 0.00 0.00 0.00 78 1012.9
20260505025701 51 23 0.0 0.0 0.00 0.00 0.00 78 1012.8
20260505025200 52 23 0.0 0.0 0.00 0.00 0.00 77 1012.7
20260505024657 52 23 0.0 0.0 0.00 0.00 0.00 76 1012.5
20260505024154 53 23 0.0 0.0 0.00 0.00 0.00 74 1012.7
20260505023652 54 29 0.0 1.0 0.00 0.00 0.00 73 1012.7
20260505023149 55 11 0.0 1.0 0.00 0.00 0.00 71 1012.8
20260505022646 55 11 0.0 1.0 0.00 0.00 0.00 71 1012.7
20260505022143 55 2 0.0 1.0 0.00 0.00 0.00 70 1012.8
20260505021640 55 12 0.0 1.0 0.00 0.00 0.00 70 1012.9
20260505021137 55 12 0.0 1.0 0.00 0.00 0.00 69 1012.7
20260505020632 55 345 1.0 1.0 0.00 0.00 0.00 69 1012.7
20260505020128 55 8 0.0 1.0 0.00 0.00 0.00 68 1012.7
20260505015626 56 9 0.0 1.0 0.00 0.00 0.00 68 1012.7
20260505015122 56 213 1.0 1.0 0.00 0.00 0.00 67 1012.5
20260505014619 56 4 1.0 1.0 0.00 0.00 0.00 67 1012.6
20260505014116 56 41 1.0 2.0 0.00 0.00 0.00 67 1012.6
20260505013614 56 10 0.0 1.0 0.00 0.00 0.00 66 1012.6
20260505013110 56 346 1.0 2.0 0.00 0.00 0.00 65 1012.6
20260505012609 57 355 1.0 3.0 0.00 0.00 0.00 64 1012.5
20260505012105 57 338 2.0 3.0 0.00 0.00 0.00 63 1012.5
20260505011601 57 309 2.0 3.0 0.00 0.00 0.00 63 1012.3
20260505011058 57 323 2.0 2.0 0.00 0.00 0.00 63 1012.4
20260505010553 57 0 1.0 2.0 0.00 0.00 0.00 63 1012.1
20260505010050 58 12 0.0 1.0 0.00 0.00 0.00 62 1012.0
20260505005547 58 311 1.0 3.0 0.00 0.00 0.00 60 1012.0
20260505005044 58 320 2.0 5.0 0.00 0.00 0.00 60 1011.9
20260505004541 58 337 1.0 6.0 0.00 0.00 0.00 60 1011.9
20260505004038 59 2 0.0 2.0 0.00 0.00 0.00 59 1011.8
20260505003535 59 285 2.0 5.0 0.00 0.00 0.00 58 1011.8
20260505003032 59 298 3.0 5.0 0.00 0.00 0.00 57 1011.9
20260505002526 59 222 1.0 5.0 0.00 0.00 0.00 57 1011.5
20260505002026 60 312 2.0 8.0 0.00 0.00 0.00 56 1011.5
20260505001523 60 184 2.0 3.0 0.00 0.00 0.00 56 1011.3
20260505001020 60 228 4.0 7.0 0.00 0.00 0.00 55 1011.3
20260505000517 61 17 1.0 9.0 0.00 0.00 0.00 54 1011.2
20260505000014 61 219 2.0 2.0 0.00 0.00 0.00 55 1011.2
20260504235511 61 100 2.0 3.0 0.00 0.00 0.00 54 1011.0
20260504235007 62 9 1.0 5.0 0.00 0.00 0.00 53 1010.9
20260504234505 62 328 1.0 2.0 0.00 0.00 0.00 53 1010.9
20260504234001 62 295 2.0 6.0 0.00 0.00 0.00 52 1010.8
20260504233457 62 32 1.0 8.0 0.00 0.00 0.00 52 1010.7
20260504232954 63 214 4.0 11.0 0.00 0.00 0.00 51 1010.6
20260504232451 63 168 4.0 7.0 0.00 0.00 0.00 51 1010.5
20260504231949 63 28 0.0 7.0 0.00 0.00 0.00 51 1010.4
20260504231444 63 248 5.0 7.0 0.00 0.00 0.00 50 1010.2
20260504230941 63 231 3.0 11.0 0.00 0.00 0.00 50 1010.3
20260504230438 64 151 2.0 6.0 0.00 0.00 0.00 51 1010.3
20260504225937 64 220 12.0 15.0 0.00 0.00 0.00 49 1010.4
20260504225433 65 258 7.0 16.0 0.00 0.00 0.00 48 1010.3
20260504224930 65 264 6.0 8.0 0.00 0.00 0.00 47 1010.3
20260504224427 65 264 3.0 7.0 0.00 0.00 0.00 48 1010.3
20260504223924 66 221 4.0 6.0 0.00 0.00 0.00 47 1010.3
20260504223420 66 193 8.0 11.0 0.00 0.00 0.00 45 1010.3
20260504222916 66 319 4.0 8.0 0.00 0.00 0.00 46 1010.2
20260504222413 66 286 4.0 8.0 0.00 0.00 0.00 45 1010.3
20260504221912 67 85 7.0 11.0 0.00 0.00 0.00 44 1010.1
20260504221408 67 177 4.0 9.0 0.00 0.00 0.00 44 1010.1
20260504220905 67 202 3.0 10.0 0.00 0.00 0.00 44 1010.1
20260504220401 69 345 4.0 11.0 0.00 0.00 0.00 40 1010.1
20260504215859 69 299 5.0 15.0 0.00 0.00 0.00 34 1010.1
20260504215355 71 198 3.0 5.0 0.00 0.00 0.00 33 1010.0
20260504214851 70 325 3.0 5.0 0.00 0.00 0.00 34 1010.0
20260504214348 69 212 5.0 10.0 0.00 0.00 0.00 34 1010.1
20260504213845 69 128 1.0 13.0 0.00 0.00 0.00 34 1010.2
20260504213341 69 242 4.0 7.0 0.00 0.00 0.00 34 1010.2
20260504212838 71 252 4.0 9.0 0.00 0.00 0.00 33 1010.2
20260504212334 71 316 3.0 5.0 0.00 0.00 0.00 33 1010.0
20260504211832 71 215 4.0 7.0 0.00 0.00 0.00 33 1010.0
20260504211328 71 212 6.0 9.0 0.00 0.00 0.00 33 1010.0
20260504210826 71 260 3.0 9.0 0.00 0.00 0.00 34 1010.2
20260504210323 72 5 1.0 3.0 0.00 0.00 0.00 31 1010.1
20260504205820 72 244 8.0 9.0 0.00 0.00 0.00 32 1010.1
20260504205318 70 228 4.0 7.0 0.00 0.00 0.00 34 1010.1
20260504204816 70 222 5.0 6.0 0.00 0.00 0.00 35 1010.1
20260504204314 70 204 4.0 7.0 0.00 0.00 0.00 36 1010.1
20260504203813 70 244 5.0 11.0 0.00 0.00 0.00 33 1010.2
20260504203310 71 300 2.0 7.0 0.00 0.00 0.00 33 1010.0
20260504202805 71 207 7.0 13.0 0.00 0.00 0.00 33 1010.3
20260504202304 72 224 9.0 10.0 0.00 0.00 0.00 32 1009.9
20260504201759 72 289 3.0 6.0 0.00 0.00 0.00 34 1010.3
20260504201256 71 218 8.0 9.0 0.00 0.00 0.00 32 1010.2
20260504200754 71 83 3.0 8.0 0.00 0.00 0.00 37 1010.2
20260504200250 72 291 4.0 10.0 0.00 0.00 0.00 33 1010.2
20260504195746 71 129 4.0 14.0 0.00 0.00 0.00 36 1010.0
20260504195242 71 154 6.0 8.0 0.00 0.00 0.00 33 1010.3
20260504194740 72 239 7.0 8.0 0.00 0.00 0.00 33 1010.3
20260504194236 71 194 6.0 14.0 0.00 0.00 0.00 33 1010.3
20260504193732 71 329 3.0 6.0 0.00 0.00 0.00 34 1010.4
20260504193230 71 268 2.0 3.0 0.00 0.00 0.00 36 1010.2
20260504192728 71 208 5.0 7.0 0.00 0.00 0.00 33 1010.3
20260504192226 70 197 3.0 11.0 0.00 0.00 0.00 34 1010.4
20260504191724 71 225 6.0 9.0 0.00 0.00 0.00 34 1010.3
20260504191221 71 264 4.0 7.0 0.00 0.00 0.00 33 1010.5
20260504190716 70 218 11.0 15.0 0.00 0.00 0.00 33 1010.4
20260504190213 69 218 3.0 9.0 0.00 0.00 0.00 34 1010.4
20260504185709 69 339 6.0 10.0 0.00 0.00 0.00 34 1010.4
20260504185206 71 179 6.0 14.0 0.00 0.00 0.00 34 1010.8
20260504184702 71 229 3.0 7.0 0.00 0.00 0.00 33 1010.6
20260504184157 70 286 2.0 7.0 0.00 0.00 0.00 34 1010.6
20260504183654 69 298 4.0 10.0 0.00 0.00 0.00 35 1010.8
20260504183151 68 185 8.0 11.0 0.00 0.00 0.00 35 1010.9
20260504182649 69 216 3.0 9.0 0.00 0.00 0.00 36 1010.9
20260504182146 69 320 3.0 6.0 0.00 0.00 0.00 34 1010.9
20260504181644 68 202 1.0 6.0 0.00 0.00 0.00 37 1011.0